Regional Weather Roundup
Issued by NWS

Home | Current Version | Previous Version | Graphics & Text | Print | Product List | Glossary On
Versions: 1 2 3 4 5 6 7 8 9 10 11 12 13 14 15 16 17 18 19 20 21 22 23 24 25 26 27 28 29 30 31 32 33 34 35 36 37 38 39 40 41 42 43 44 45 46 47 48 49 50
000
ASUS45 KCYS 221310
RWRWY

WYOMING REGIONAL WEATHER ROUNDUP
NATIONAL WEATHER SERVICE CHEYENNE WY
700 AM MDT FRI AUG 22 2014

NOTE:  "FAIR" INDICATES FEW OR NO CLOUDS BELOW 12,000 FEET
WITH NO SIGNIFICANT WEATHER AND/OR OBSTRUCTIONS TO VISIBILITY.

WYZ001-221400-
YELLOWSTONE NATIONAL PARK

CITY           SKY/WX    TMP DP  RH WIND       PRES   REMARKS
LK YELLOWSTONE   N/A     43  42  97 NW3       30.23F
W YELLOWSTONE  NOT AVBL

$$
WYZ002>013-054>058-071-098>099-221400-
NORTHERN WYOMING

CITY           SKY/WX    TMP DP  RH WIND       PRES   REMARKS
JACKSON        CLOUDY    48  48 100 SW10      30.18F
CODY           CLOUDY    52  52 100 NE7       30.12F
GREYBULL       CLOUDY    57  54  89 CALM      30.09R
WORLAND        LGT RAIN  55  49  80 SE5       30.10R
SHERIDAN       CLOUDY    58  55  90 SW3       30.11R
BUFFALO        CLOUDY    56  54  93 CALM      30.15S
GILLETTE       MOCLDY    58  54  86 CALM      30.14R
HULETT         CLOUDY    59  57  94 MISG      30.13
NEWCASTLE      FAIR      52  50  93 SE3       30.11

$$
WYZ014>020-022>026-101>103-221400-
CENTRAL WYOMING

CITY           SKY/WX    TMP DP  RH WIND       PRES   REMARKS
BIG PINEY      LGT RAIN  48  45  89 NE8       30.21S
PINEDALE       CLOUDY    46  46 100 NW5       30.22R
DUBOIS         CLOUDY    45  41  87 CALM      30.20R
LANDER         PTCLDY    51  47  86 S9        30.13R
RIVERTON       PTCLDY    53  50  89 NE5       30.14R
CASPER         MOCLDY    50  48  93 CALM      30.15F
DOUGLAS        CLOUDY    58  53  84 CALM      30.18R

$$
WYZ021-027>030-104>119-221400-
SOUTHERN WYOMING

CITY           SKY/WX    TMP DP  RH WIND       PRES   REMARKS
EVANSTON       PTCLDY    49  46  90 N7        30.19S
KEMMERER       PTSUNNY   48  45  87 CALM      30.22S
FORT BRIDGER   CLOUDY    49  47  93 MISG      30.23S
ROCK SPRINGS   MOCLDY    49  41  74 CALM      30.19S
DIXON          FAIR      52  46  79 CALM      30.22S
RAWLINS        CLOUDY    45  42  89 CALM      30.21S
SARATOGA       FAIR      48  45  87 MISG      30.22S
LARAMIE        CLOUDY    52  45  77 SW6       30.25R
CHEYENNE       CLOUDY    60  50  69 SW6       30.20F
TORRINGTON     CLOUDY    58  54  86 NW5       30.12R
PINE BLUFFS    PTSUNNY   63  54  72 S7        30.16F

$$



USA.gov is the U.S. government's official web portal to all federal, state and local government web resources and services.